C/2017 K4 ( ATLAS )

Japanese version
Home page
Updated on November 23, 2017

---------------------------------------------------------------------

* Profile

Discovery Date May 26, 2017
Magnitude 17.0 mag
Discoverer Asteroid Terrestrial-impact Last Alert System (ATLAS) Team

* Pictures

* Orbital Elements

Epoch 2018 Jan. 2.0 TT = JDT 2458120.5
T 2018 Jan. 8.03130 TT                                  MPCW
q   2.6480796            (2000.0)            P               Q
n   0.00661512     Peri.   15.10818     +0.68513579     +0.68370507
a  28.1046007      Node   298.89800     -0.69453068     +0.50918025
e   0.9057777      Incl.   16.67886     -0.21958162     +0.52276463
P 149
From 224 observations 2017 May 26-Oct. 11, mean residual 0".4.

* Finding Charts

* Magnitudes Graph

        m1 = 9.0 + 5 log d + 10.0 log r

---------------------------------------------------------------------

The orbital elements are published on M.P.E.C. 2017-V13.
The charts are made with StellaNavigator Ver.10 (AstroArts).
The magnitudes graphs are made with Comet for Windows.

---------------------------------------------------------------------

Copyright(C) Seiichi Yoshida (comet@aerith.net). All rights reserved.